This is the latest recevied weather packets stored in our database for station/object N4QD-13. If no packets are shown the sender has not sent any weather packets the latest 10 day(s).
| Time | Temp. | Humidity | Pressure | Rain* | Wind** | Luminosity | Snow |
|---|---|---|---|---|---|---|---|
| 1777837762 | 16.67° C | 36% | 1016.3 hPa | 0 mm | - | 754 W/m² | - |
| 1777837459 | 16.67° C | 32% | 1016.6 hPa | 0 mm | - | 775 W/m² | - |
| 1777837154 | 17.22° C | 34% | 1016.4 hPa | 0 mm | - | 797 W/m² | - |
| 1777836850 | 16.67° C | 37% | 1016.6 hPa | 0 mm | - | 814 W/m² | - |
| 1777836546 | 16.67° C | 35% | 1016.6 hPa | 0 mm | - | 822 W/m² | - |
| 1777836242 | 16.11° C | 36% | 1016.8 hPa | 0 mm | - | 805 W/m² | - |
| 1777835938 | 16.11° C | 35% | 1016.7 hPa | 0 mm | - | 827 W/m² | - |
| 1777835636 | 17.22° C | 34% | 1017 hPa | 0 mm | - | 821 W/m² | - |
| 1777835332 | 16.11° C | 35% | 1017.2 hPa | 0 mm | - | 818 W/m² | - |
| 1777835029 | 15.56° C | 37% | 1017.4 hPa | 0 mm | - | 799 W/m² | - |
| 1777834726 | 16.11° C | 40% | 1017.3 hPa | 0 mm | - | 790 W/m² | - |
| 1777834423 | 16.67° C | 37% | 1017.2 hPa | 0 mm | - | 805 W/m² | - |
| 1777834122 | 16.67° C | 35% | 1017.5 hPa | 0 mm | - | 793 W/m² | - |
| 1777833819 | 15.56° C | 39% | 1017.5 hPa | 0 mm | - | 782 W/m² | - |
| 1777833514 | 16.11° C | 40% | 1017.5 hPa | 0 mm | - | 773 W/m² | - |
| 1777833212 | 15.56° C | 38% | 1017.6 hPa | 0 mm | - | 759 W/m² | - |
| 1777832909 | 15.56° C | 41% | 1017.6 hPa | 0 mm | - | 751 W/m² | - |
| 1777832609 | 16.11° C | 38% | 1017.6 hPa | 0 mm | - | 750 W/m² | - |
| 1777832305 | 15.56° C | 37% | 1017.7 hPa | 0 mm | - | 749 W/m² | - |
| 1777832002 | 15.56° C | 36% | 1017.6 hPa | 0 mm | - | 714 W/m² | - |
| 1777831698 | 15° C | 39% | 1017.7 hPa | 0 mm | - | 684 W/m² | - |
| 1777831397 | 15.56° C | 41% | 1017.7 hPa | 0 mm | - | 705 W/m² | - |
| 1777831093 | 15.56° C | 38% | 1017.7 hPa | 0 mm | - | 746 W/m² | - |
| 1777830791 | 15° C | 39% | 1017.9 hPa | 0 mm | - | 747 W/m² | - |
| 1777830486 | 14.44° C | 40% | 1017.8 hPa | 0 mm | - | 747 W/m² | - |
* Rain latest hour (hover to see other rain measurements)
** Current wind speed in m/s (hover to see current wind gust speed)